When you browse on this site, cookies collect data to enhance your experience and personalize the content and advertising you see.
Visit our Privacy Policy to learn more. By continuing to use the site, you agree to this use of cookies and data.
EN

Hourly Weather Bolgary

Today, 20 September, Sunday

Time Temperature Precipitation Wind Pressure Humidity
00:00 +3°C° 0 mm 3 mps 735 mmHg 95%
01:00 +3°C° 0 mm 3 mps 735 mmHg 96%
02:00 +3°C° 0 mm 3 mps 735 mmHg 96%
03:00 +2°C° 0 mm 3 mps 735 mmHg 96%
04:00 +2°C° 0 mm 3 mps 735 mmHg 97%
05:00 +2°C° 0 mm 3 mps 734 mmHg 97%
06:00 +2°C° 0 mm 3 mps 734 mmHg 97%
07:00 +3°C° 0 mm 3 mps 734 mmHg 93%
08:00 +4°C° 0 mm 4 mps 734 mmHg 90%
09:00 +6°C° 0 mm 4 mps 734 mmHg 86%
10:00 +6°C° 0.2 mm 5 mps 734 mmHg 86%
11:00 +6°C° 0.2 mm 5 mps 734 mmHg 86%
12:00 +6°C° 0.2 mm 5 mps 735 mmHg 86%
13:00 +5°C° 0.2 mm 6 mps 735 mmHg 82%
14:00 +7°C° 0.2 mm 6 mps 735 mmHg 78%
15:00 +6°C° 0.2 mm 7 mps 736 mmHg 75%
16:00 +5°C° 0.1 mm 6 mps 736 mmHg 79%
17:00 +5°C° 0.1 mm 5 mps 736 mmHg 82%
18:00 +5°C° 0.1 mm 5 mps 737 mmHg 86%
19:00 +3°C° 0 mm 5 mps 737 mmHg 87%
20:00 +3°C° 0 mm 5 mps 738 mmHg 89%
21:00 +4°C° 0 mm 4 mps 738 mmHg 90%
22:00 +3°C° 0 mm 5 mps 738 mmHg 90%
23:00 +3°C° 0 mm 5 mps 738 mmHg 89%

Tomorrow, 21 September, Monday

Time Temperature Precipitation Wind Pressure Humidity
00:00 +3°C° 0 mm 5 mps 738 mmHg 89%
01:00 +3°C° 0 mm 5 mps 739 mmHg 89%
02:00 +3°C° 0 mm 5 mps 739 mmHg 88%
03:00 +3°C° 0 mm 5 mps 740 mmHg 88%
04:00 +3°C° 0 mm 5 mps 740 mmHg 89%
05:00 +2°C° 0 mm 5 mps 740 mmHg 90%
06:00 +1°C° 0 mm 5 mps 740 mmHg 91%
07:00 +2°C° 0 mm 5 mps 741 mmHg 89%
08:00 +3°C° 0 mm 5 mps 741 mmHg 88%
09:00 +5°C° 0 mm 5 mps 741 mmHg 86%
10:00 +5°C° 0.1 mm 5 mps 741 mmHg 81%
11:00 +6°C° 0.1 mm 5 mps 741 mmHg 77%
12:00 +7°C° 0.1 mm 5 mps 740 mmHg 72%
13:00 +6°C° 0.2 mm 5 mps 740 mmHg 78%
14:00 +5°C° 0.2 mm 6 mps 740 mmHg 84%
15:00 +4°C° 0.2 mm 6 mps 740 mmHg 90%
16:00 +5°C° 0.8 mm 6 mps 739 mmHg 91%
17:00 +5°C° 0.8 mm 6 mps 739 mmHg 92%
18:00 +5°C° 0.8 mm 6 mps 739 mmHg 92%
19:00 +5°C° 0.2 mm 6 mps 739 mmHg 92%
20:00 +5°C° 0.2 mm 6 mps 739 mmHg 92%
21:00 +6°C° 0.2 mm 5 mps 739 mmHg 92%
22:00 +6°C° 0 mm 5 mps 739 mmHg 93%
23:00 +6°C° 0 mm 4 mps 740 mmHg 95%

Day after tomorrow, 22 September, Tuesday

Time Temperature Precipitation Wind Pressure Humidity
00:00 +5°C° 0 mm 4 mps 740 mmHg 96%
01:00 +5°C° 0 mm 4 mps 740 mmHg 96%
02:00 +5°C° 0 mm 4 mps 741 mmHg 96%
03:00 +4°C° 0 mm 4 mps 741 mmHg 96%
04:00 +4°C° 0 mm 4 mps 741 mmHg 96%
05:00 +5°C° 0 mm 4 mps 741 mmHg 96%
06:00 +5°C° 0 mm 5 mps 741 mmHg 96%
07:00 +6°C° 0 mm 5 mps 741 mmHg 90%
08:00 +7°C° 0 mm 5 mps 741 mmHg 85%
09:00 +8°C° 0 mm 6 mps 741 mmHg 80%
10:00 +9°C° 0 mm 6 mps 741 mmHg 81%
11:00 +10°C° 0 mm 7 mps 740 mmHg 83%
12:00 +10°C° 0 mm 7 mps 740 mmHg 84%
13:00 +11°C° 0 mm 7 mps 739 mmHg 83%
14:00 +12°C° 0 mm 7 mps 739 mmHg 82%
15:00 +12°C° 0 mm 7 mps 738 mmHg 81%
16:00 +12°C° 0 mm 7 mps 738 mmHg 82%
17:00 +12°C° 0 mm 7 mps 738 mmHg 82%
18:00 +11°C° 0 mm 6 mps 738 mmHg 83%
19:00 +11°C° 0 mm 6 mps 738 mmHg 83%
20:00 +11°C° 0 mm 6 mps 738 mmHg 83%
21:00 +11°C° 0 mm 6 mps 738 mmHg 83%
22:00 +11°C° 0 mm 6 mps 738 mmHg 83%
23:00 +10°C° 0 mm 6 mps 738 mmHg 83%

23 September, Wednesday

Time Temperature Precipitation Wind Pressure Humidity
00:00 +10°C° 0 mm 6 mps 738 mmHg 84%
01:00 +10°C° 0 mm 6 mps 738 mmHg 86%
02:00 +9°C° 0 mm 6 mps 739 mmHg 88%
03:00 +9°C° 0 mm 6 mps 740 mmHg 90%
04:00 +8°C° 0 mm 6 mps 740 mmHg 88%
05:00 +8°C° 0 mm 5 mps 741 mmHg 85%
06:00 +7°C° 0 mm 5 mps 741 mmHg 83%
07:00 +8°C° 0 mm 6 mps 742 mmHg 74%
08:00 +8°C° 0 mm 6 mps 742 mmHg 66%
09:00 +9°C° 0 mm 7 mps 743 mmHg 57%
10:00 +10°C° 0 mm 7 mps 744 mmHg 56%
11:00 +11°C° 0 mm 7 mps 744 mmHg 54%
12:00 +11°C° 0 mm 7 mps 745 mmHg 53%
13:00 +11°C° 0 mm 6 mps 745 mmHg 53%
14:00 +13°C° 0 mm 6 mps 746 mmHg 53%
15:00 +13°C° 0 mm 6 mps 746 mmHg 53%
16:00 +10°C° 0 mm 5 mps 747 mmHg 60%
17:00 +10°C° 0 mm 3 mps 747 mmHg 66%
18:00 +8°C° 0 mm 2 mps 748 mmHg 72%
19:00 +8°C° 0 mm 2 mps 748 mmHg 75%
20:00 +8°C° 0 mm 1 mps 749 mmHg 78%
21:00 +7°C° 0 mm 1 mps 749 mmHg 80%
22:00 +7°C° 0 mm 1 mps 750 mmHg 81%
23:00 +7°C° 0 mm 1 mps 750 mmHg 82%

24 September, Thursday

Time Temperature Precipitation Wind Pressure Humidity
00:00 +6°C° 0 mm 1 mps 750 mmHg 82%
01:00 +6°C° 0 mm 1 mps 750 mmHg 83%
02:00 +6°C° 0 mm 1 mps 751 mmHg 83%
03:00 +6°C° 0 mm 1 mps 751 mmHg 84%
04:00 +6°C° 0 mm 1 mps 752 mmHg 84%
05:00 +6°C° 0 mm 1 mps 752 mmHg 84%
06:00 +6°C° 0 mm 1 mps 752 mmHg 84%
07:00 +7°C° 0 mm 2 mps 752 mmHg 77%
08:00 +9°C° 0 mm 2 mps 752 mmHg 70%
09:00 +12°C° 0 mm 2 mps 752 mmHg 62%
10:00 +13°C° 0 mm 2 mps 753 mmHg 59%
11:00 +14°C° 0 mm 2 mps 753 mmHg 55%
12:00 +16°C° 0 mm 3 mps 753 mmHg 51%
13:00 +16°C° 0 mm 3 mps 753 mmHg 53%
14:00 +16°C° 0 mm 3 mps 753 mmHg 55%
15:00 +17°C° 0 mm 3 mps 753 mmHg 57%
16:00 +14°C° 0 mm 3 mps 753 mmHg 65%
17:00 +12°C° 0 mm 3 mps 753 mmHg 72%
18:00 +10°C° 0 mm 3 mps 753 mmHg 80%
19:00 +10°C° 0 mm 3 mps 753 mmHg 80%
20:00 +10°C° 0 mm 3 mps 753 mmHg 80%
21:00 +9°C° 0 mm 3 mps 753 mmHg 80%
22:00 +9°C° 0 mm 3 mps 753 mmHg 82%
23:00 +9°C° 0 mm 3 mps 753 mmHg 83%

25 September, Friday

Time Temperature Precipitation Wind Pressure Humidity
00:00 +9°C° 0 mm 3 mps 753 mmHg 85%
01:00 +9°C° 0 mm 3 mps 754 mmHg 86%
02:00 +8°C° 0 mm 3 mps 754 mmHg 87%
03:00 +8°C° 0 mm 3 mps 754 mmHg 88%
04:00 +8°C° 0 mm 3 mps 754 mmHg 89%
05:00 +8°C° 0 mm 3 mps 754 mmHg 90%
06:00 +8°C° 0 mm 3 mps 754 mmHg 91%
07:00 +10°C° 0 mm 3 mps 754 mmHg 85%
08:00 +11°C° 0 mm 3 mps 754 mmHg 79%
09:00 +13°C° 0 mm 3 mps 754 mmHg 73%
10:00 +14°C° 0 mm 3 mps 754 mmHg 69%
11:00 +17°C° 0 mm 4 mps 755 mmHg 66%
12:00 +18°C° 0 mm 4 mps 755 mmHg 62%
13:00 +18°C° 0 mm 4 mps 755 mmHg 62%
14:00 +18°C° 0 mm 4 mps 755 mmHg 62%
15:00 +18°C° 0 mm 4 mps 755 mmHg 62%
16:00 +15°C° 0 mm 4 mps 754 mmHg 67%
17:00 +13°C° 0 mm 3 mps 754 mmHg 73%
18:00 +12°C° 0 mm 3 mps 754 mmHg 78%
19:00 +11°C° 0 mm 3 mps 754 mmHg 78%
20:00 +10°C° 0 mm 3 mps 755 mmHg 78%
21:00 +10°C° 0 mm 3 mps 755 mmHg 79%
22:00 +9°C° 0 mm 3 mps 755 mmHg 79%
23:00 +9°C° 0 mm 2 mps 755 mmHg 79%
Show more